| time (UTC) | temp F | wind direction | speed knots | gust knots | rain 1hr in | rain 24hr in | rain mn in | humidity % | barometer mb |
| 20260505034524 | 59 | 332 | 1.7 | 6.1 | 0.04 | 0.21 | 0.21 | 74 | 1007.7 |
| 20260505033025 | 58 | 314 | 0.0 | 5.2 | 0.05 | 0.21 | 0.21 | 80 | 1007.3 |
| 20260505031530 | 57 | 103 | 0.0 | 3.5 | 0.07 | 0.21 | 0.21 | 80 | 1007.7 |
| 20260505030023 | 57 | 307 | 0.9 | 4.3 | 0.06 | 0.18 | 0.18 | 76 | 1008.5 |
| 20260505024521 | 57 | 353 | 1.7 | 5.2 | 0.07 | 0.17 | 0.17 | 78 | 1008.3 |
| 20260505023019 | 57 | 320 | 0.9 | 7.0 | 0.07 | 0.16 | 0.16 | 79 | 1008.5 |
| 20260505021517 | 58 | 304 | 0.0 | 6.1 | 0.06 | 0.14 | 0.14 | 74 | 1008.4 |
| 20260505020013 | 59 | 288 | 2.6 | 7.8 | 0.05 | 0.12 | 0.12 | 68 | 1008.1 |
| 20260505014515 | 60 | 319 | 2.6 | 9.6 | 0.04 | 0.10 | 0.10 | 68 | 1007.9 |
| 20260505013006 | 61 | 309 | 2.6 | 8.7 | 0.04 | 0.09 | 0.09 | 68 | 1007.2 |
| 20260505011503 | 61 | 319 | 1.7 | 4.3 | 0.05 | 0.08 | 0.08 | 63 | 1006.7 |
| 20260505010006 | 62 | 319 | 1.7 | 3.5 | 0.04 | 0.07 | 0.07 | 64 | 1006.7 |
| 20260505004600 | 62 | 315 | 1.7 | 7.0 | 0.03 | 0.06 | 0.06 | 62 | 1006.8 |
| 20260505003114 | 63 | 327 | 3.5 | 7.8 | 0.04 | 0.05 | 0.05 | 62 | 1006.7 |
| 20260505001558 | 64 | 314 | 2.6 | 7.8 | 0.03 | 0.03 | 0.03 | 57 | 1006.2 |
| 20260504234555 | 63 | 322 | 2.6 | 11.3 | 0.03 | 0.03 | 0.03 | 61 | 1005.9 |
| 20260504233055 | 68 | 335 | 7.0 | 13.9 | 0.00 | 0.00 | 0.00 | 46 | 1006.6 |
| 20260504231550 | 74 | 319 | 7.8 | 20.9 | 0.00 | 0.00 | 0.00 | 28 | 1006.0 |
| 20260504230108 | 75 | 328 | 8.7 | 13.9 | 0.00 | 0.00 | 0.00 | 25 | 1005.7 |
| 20260504224600 | 76 | 321 | 7.0 | 12.2 | 0.00 | 0.00 | 0.00 | 22 | 1005.5 |
| 20260504223047 | 77 | 310 | 4.3 | 13.9 | 0.00 | 0.00 | 0.00 | 21 | 1005.6 |
| 20260504221546 | 78 | 301 | 8.7 | 13.9 | 0.00 | 0.00 | 0.00 | 20 | 1005.4 |
| 20260504220052 | 79 | 349 | 7.0 | 14.8 | 0.00 | 0.00 | 0.00 | 20 | 1005.6 |
| 20260504214546 | 79 | 335 | 6.1 | 12.2 | 0.00 | 0.00 | 0.00 | 19 | 1005.2 |
| 20260504213043 | 80 | 340 | 5.2 | 10.4 | 0.00 | 0.00 | 0.00 | 18 | 1005.0 |
| 20260504211543 | 80 | 339 | 5.2 | 10.4 | 0.00 | 0.00 | 0.00 | 18 | 1005.3 |
| 20260504210055 | 80 | 275 | 1.7 | 7.0 | 0.00 | 0.00 | 0.00 | 20 | 1005.5 |
| 20260504204547 | 79 | 312 | 5.2 | 10.4 | 0.00 | 0.00 | 0.00 | 19 | 1005.7 |
| 20260504203043 | 80 | 280 | 0.9 | 7.0 | 0.00 | 0.00 | 0.00 | 20 | 1005.7 |
| 20260504201541 | 80 | 324 | 0.0 | 3.5 | 0.00 | 0.00 | 0.00 | 21 | 1006.0 |
| 20260504200049 | 79 | 293 | 1.7 | 7.0 | 0.00 | 0.00 | 0.00 | 22 | 1005.9 |
| 20260504194535 | 79 | 333 | 3.5 | 7.8 | 0.00 | 0.00 | 0.00 | 22 | 1005.8 |
| 20260504193032 | 78 | 321 | 0.0 | 4.3 | 0.00 | 0.00 | 0.00 | 24 | 1005.9 |
| 20260504191530 | 77 | 260 | 2.6 | 6.1 | 0.00 | 0.00 | 0.00 | 24 | 1006.0 |
| 20260504190029 | 77 | 321 | 0.9 | 4.3 | 0.00 | 0.00 | 0.00 | 24 | 1006.2 |
| 20260504184535 | 77 | 321 | 1.7 | 7.0 | 0.00 | 0.00 | 0.00 | 24 | 1006.4 |
| 20260504183034 | 76 | 295 | 1.7 | 5.2 | 0.00 | 0.00 | 0.00 | 24 | 1006.7 |
| 20260504181526 | 77 | 238 | 2.6 | 5.2 | 0.00 | 0.00 | 0.00 | 24 | 1006.9 |
| 20260504180026 | 76 | 321 | 0.0 | 4.3 | 0.00 | 0.00 | 0.00 | 24 | 1006.8 |
| 20260504174523 | 76 | 323 | 2.6 | 7.0 | 0.00 | 0.00 | 0.00 | 25 | 1007.1 |
| 20260504173022 | 76 | 238 | 1.7 | 5.2 | 0.00 | 0.00 | 0.00 | 26 | 1006.8 |
| 20260504171522 | 76 | 273 | 0.9 | 7.0 | 0.00 | 0.00 | 0.00 | 26 | 1007.0 |
| 20260504120112 | 68 | 329 | 0.9 | 2.6 | 0.00 | 0.00 | 0.00 | 35 | 1005.5 |
| 20260504081533 | 71 | 327 | 1.7 | 3.5 | 0.00 | 0.00 | 0.00 | 32 | 1004.9 |
| 20260504050015 | 73 | 326 | 2.6 | 5.2 | 0.00 | 0.00 | 0.00 | 27 | 1005.8 |
| 20260504044518 | 73 | 322 | 3.5 | 6.1 | 0.00 | 0.00 | 0.00 | 25 | 1005.9 |
| 20260504043016 | 74 | 332 | 1.7 | 8.7 | 0.00 | 0.00 | 0.00 | 25 | 1005.7 |
| 20260504041513 | 74 | 314 | 3.5 | 6.1 | 0.00 | 0.00 | 0.00 | 24 | 1005.6 |